Weather in Neksikan

Russia / Magadan District     62°40′15″N   147°45′33″E
temp.,
°C
wind,
m/s
gust,
m/s
humid.,
%
clouds,
%
prec.,
mm/h
press.,
hPa
HPBL,
m
17 august, wed
wed1723:00+9ne2275100 0.0 100020
02:00+8ene1181100 0.0 99914
05:00+8nne1191100 0.6 99925
08:00+8nne1190100 0.8 1000113
11:00+8nne1287100 1.4 999229
14:00+9e1189100 0.9 998206
17:00+9se1190100 1.6 999155
20:00+8ese1191100 0.3 100033
18 august, thu
thu1823:00+8ese118997 0.3 99914
02:00+5ese1192100 0.0 99910
05:00+5sse119298 0.0 100011
08:00+8se128291 0.0 1000229
11:00+12s247047 0.0 998775
14:00+14s4561100 0.0 9971188
17:00+15sse345883 0.0 9971055
20:00+13se2273100 0.1 99820
19 august, fri
fri1923:00+11sse3385100 0.1 99965
02:00+9sse2291100 0.1 100143
05:00+9sse2296100 0.7 100152
08:00+9ese1297100 7.1 1002133
11:00+9ese2292100 11.9 1002195
14:00+10se2384100 0.8 1002411
17:00+9sse2489100 1.2 1001310
20:00+8s3593100 2.1 1002198
20 august, sat
sat2023:00+7ssw2591100 3.7 1003354
02:00+7s2496100 0.9 1003230
05:00+6s2596100 1.0 1004310
08:00+7ssw3594100 0.0 1005340
11:00+8ssw4887100 0.1 1005667
14:00+10ssw3679100 0.0 1006760
17:00+12ssw5670100 0.1 1006769
20:00+11s227684 0.0 100722
21 august, sun
sun2123:00+9sse228098 0.0 100812
02:00+8ssw2281100 0.0 100922
05:00+5ssw1188100 0.0 101010
08:00+9ne1177100 0.0 1009126
11:00+12ene126497 0.0 1007627
14:00+15ene3454100 0.0 10061070
17:00+16e4550100 0.0 10041391
20:00+13ene5862100 0.0 1005196